Wind_Speed
22 21 20 18 17 17 16 15 15 14 13 12 11 11 11 12 14 15 14 13 12 11 11 11 9 8 7 7 7 7 7 6 5 6 9 10 6 5 4 2 2 2 3 3 2 1 1 1 5 6 8 9 7 7 10 10 10 8 8 8 9 12 12
23 23 21 19 18 18 18 17 16 15 13 12 12 13 13 13 14 14 14 15 16 15 15 15 14 12 11 10 9 8 10 9 6 6 8 8 5 5 6 5 6 6 6 6 5 3 2 1 3 3 8 11 9 9 11 10 9 8 9 9 10 12 11
25 24 22 21 20 19 19 18 16 15 13 12 12 12 14 14 14 12 11 12 13 13 13 13 13 12 12 12 11 10 12 13 12 11 11 9 8 8 8 7 8 8 7 7 8 8 4 1 1 3 6 9 8 10 12 11 9 9 10 10 11 12 12
27 26 24 23 21 20 19 18 16 15 14 14 13 13 13 13 12 11 10 11 11 11 11 10 10 10 10 10 11 12 13 13 13 12 12 11 10 10 9 8 8 8 7 7 7 7 6 3 1 3 6 8 6 8 11 12 12 12 12 12 11 10 9
28 27 27 25 23 22 21 19 18 17 16 15 14 13 13 12 11 11 12 13 13 12 11 10 10 9 8 8 9 11 11 11 10 9 10 9 8 9 9 8 7 7 7 7 5 5 5 4 3 1 5 8 5 7 11 12 16 19 20 20 19 18 17
29 28 27 27 25 24 23 22 21 19 18 16 14 14 13 12 11 12 13 13 13 11 10 10 10 9 9 9 10 10 10 9 7 6 8 8 7 7 8 7 6 6 6 6 5 5 5 4 5 5 5 6 4 6 10 10 10 13 16 18 18 18 19
29 29 27 27 27 25 24 24 22 21 19 17 15 15 14 13 12 12 13 13 12 10 10 10 9 9 11 12 12 11 11 9 8 7 8 9 8 7 7 6 5 5 5 5 4 4 5 6 7 7 6 5 4 5 8 9 9 9 12 13 12 14 17
30 29 28 27 28 27 26 25 24 22 20 18 17 15 14 14 13 12 13 13 12 10 9 10 9 9 9 11 12 12 12 10 9 9 8 8 8 8 7 6 6 5 3 4 3 3 4 6 7 8 8 6 4 5 6 7 8 9 13 15 9 11 18
32 30 29 29 29 28 27 26 25 22 21 20 18 17 16 14 13 12 13 13 12 10 9 9 9 8 8 9 10 10 10 9 9 9 8 7 7 7 8 7 7 7 6 6 6 5 4 4 5 6 9 8 4 3 4 6 6 4 12 18 11 11 20
33 31 30 31 31 29 27 27 26 24 23 21 19 18 17 14 12 11 12 13 13 11 10 9 8 7 6 7 7 7 7 7 6 7 7 7 6 6 6 6 7 8 8 8 9 9 7 5 5 5 7 7 5 3 1 4 4 3 8 17 14 14 23
33 32 30 32 32 31 29 28 27 26 25 23 21 20 18 15 13 11 11 12 13 12 11 9 7 5 5 5 5 4 4 4 3 4 5 5 5 4 4 4 4 6 6 7 8 8 8 7 7 8 7 6 6 4 2 2 4 3 8 16 17 18 24
32 33 30 31 32 31 31 30 29 28 26 25 22 21 20 17 14 12 11 11 12 12 11 9 7 5 4 4 4 3 2 2 0 1 2 2 3 3 2 2 2 4 5 4 5 5 6 6 7 8 7 7 7 6 4 3 2 4 10 16 19 21 22
32 35 33 32 32 32 32 31 30 28 27 26 24 22 21 18 16 14 12 12 11 12 11 9 7 6 5 4 3 3 3 3 3 2 1 1 1 0 1 1 2 4 4 3 3 2 3 5 7 8 8 8 7 7 9 6 4 9 15 16 18 21 21
32 35 35 33 32 32 32 32 31 29 28 27 25 23 21 19 17 14 13 12 11 11 11 10 9 7 7 7 6 5 6 5 5 5 5 4 4 3 2 1 1 1 2 3 3 2 3 5 5 6 7 6 6 6 9 9 7 11 17 17 17 19 20
33 34 35 35 35 34 34 34 32 30 30 28 25 23 22 20 17 14 13 12 10 10 10 9 9 8 8 9 8 8 8 8 8 8 8 8 7 6 5 4 4 3 3 3 3 3 3 3 4 5 6 5 4 5 6 8 8 9 15 19 20 20 20
30 30 32 32 32 32 32 34 35 33 31 29 27 24 21 20 18 15 13 12 10 9 9 9 9 8 8 9 10 11 11 11 10 10 11 11 10 9 8 7 6 5 6 5 4 4 3 2 4 5 5 4 4 5 6 8 9 9 12 17 20 21 21
26 27 28 23 23 26 26 29 32 34 33 30 28 25 23 20 18 16 14 13 12 11 10 10 10 9 9 10 11 12 13 13 13 13 14 13 13 13 12 10 8 8 8 7 6 5 4 4 5 5 5 6 6 7 8 9 10 10 11 15 19 21 21
25 22 17 11 11 19 22 24 27 30 31 31 30 27 24 22 19 18 16 15 14 14 13 13 13 13 13 12 12 13 14 15 15 16 16 16 15 15 15 13 11 11 10 8 7 7 6 5 6 6 6 8 8 9 10 11 11 12 13 15 19 20 21
23 21 18 13 9 10 12 14 18 23 22 20 23 25 24 23 21 19 17 16 16 16 16 16 16 17 18 17 17 16 16 17 18 18 18 18 17 17 17 15 13 13 12 10 8 8 8 7 7 8 8 9 10 12 13 14 14 14 15 16 17 20 21
16 17 19 18 15 13 11 9 12 19 17 13 15 18 17 18 19 19 19 18 17 17 17 17 17 17 19 20 20 20 20 20 20 21 21 21 20 19 18 17 15 15 15 12 11 10 10 9 9 9 10 10 12 13 15 16 16 15 16 16 16 18 20
15 15 16 15 15 18 17 13 13 16 17 17 17 15 13 14 17 19 19 19 19 19 19 19 18 18 18 19 20 20 22 24 25 25 24 24 23 21 20 19 17 17 16 14 13 12 11 11 10 9 9 10 12 14 16 16 15 14 14 15 15 16 18
17 17 19 17 15 18 20 19 17 16 17 19 20 20 19 17 18 20 20 20 21 19 19 19 20 18 18 19 20 21 22 24 27 29 28 27 25 23 22 20 19 19 18 16 14 13 12 11 10 9 9 10 11 13 13 12 11 11 13 15 16 17 19
16 14 15 17 21 24 25 25 23 19 18 18 17 20 22 20 19 20 19 19 19 19 19 20 19 18 19 21 22 23 24 24 27 30 31 30 28 26 24 22 21 20 19 17 15 14 13 11 10 10 9 10 11 11 9 8 7 8 10 13 14 15 18
11 14 20 24 25 24 24 23 20 16 15 16 15 16 18 18 17 15 13 13 14 15 16 16 17 19 20 22 22 24 25 25 26 30 33 33 31 28 25 24 23 22 21 18 16 14 12 11 10 10 10 11 11 10 8 6 6 6 8 9 11 13 14
15 18 22 23 20 19 18 16 13 9 10 11 11 11 11 11 10 10 10 11 12 12 13 14 16 18 19 20 21 22 24 26 28 30 33 34 31 28 27 27 25 23 21 18 16 14 12 11 11 11 12 12 11 10 9 8 7 7 8 9 11 13 14
18 18 18 16 14 14 13 11 9 7 7 7 8 8 9 8 8 8 8 8 8 8 9 12 14 15 16 16 17 18 20 24 28 31 32 32 30 28 29 28 25 23 20 16 15 13 12 13 13 13 13 13 11 10 10 10 10 9 9 10 12 14 15
19 17 16 15 14 13 11 9 8 6 5 5 5 5 4 4 4 5 5 5 5 6 7 9 11 13 14 15 15 16 17 19 23 28 31 32 30 29 30 29 26 24 20 17 15 13 13 13 13 14 14 13 12 11 11 11 11 11 11 12 14 16 16
17 16 14 13 11 10 8 7 6 5 4 5 4 3 3 1 1 3 5 5 5 5 6 8 10 12 14 13 13 12 13 14 18 23 24 25 26 26 27 27 22 17 14 14 14 12 12 13 13 14 14 13 13 13 12 12 12 12 12 12 13 15 16
13 12 10 8 7 6 5 4 4 4 3 3 2 2 2 2 2 3 4 5 6 6 6 8 11 12 12 11 9 7 9 12 15 16 16 17 18 20 20 19 15 10 10 13 12 11 11 12 12 14 15 15 15 14 13 12 12 12 12 13 13 14 15
10 8 6 6 6 5 5 4 3 3 3 3 3 4 4 5 6 5 6 7 7 7 7 7 9 10 9 7 5 3 5 8 9 10 10 11 13 15 13 11 10 9 10 11 11 10 10 11 13 15 15 15 15 13 12 12 12 12 11 12 12 13 15
9 8 7 7 8 6 5 4 3 3 4 3 3 4 6 6 7 8 8 8 8 7 7 6 6 6 5 4 2 3 6 8 9 11 11 12 12 13 11 8 8 10 10 9 9 9 9 10 12 12 12 12 11 10 10 11 12 13 14 15 17 18 20
10 10 10 10 9 7 6 6 5 5 4 4 5 6 7 7 8 9 9 9 9 8 7 6 5 5 4 3 4 5 6 8 10 10 10 10 10 11 10 10 9 10 10 9 8 9 9 9 9 9 8 8 9 10 11 13 15 16 18 19 20 21 21
10 10 10 10 10 8 8 8 8 7 6 6 6 7 8 7 8 10 10 10 10 9 9 8 7 6 5 6 6 6 6 8 9 9 9 10 10 11 11 10 9 9 8 8 7 7 6 6 6 6 7 9 10 12 13 14 15 15 16 17 17 18 18
3 4 4 5 7 9 10 11 10 9 9 8 7 7 7 6 8 11 11 10 10 10 9 8 8 8 7 7 7 7 7 7 8 9 9 9 9 9 9 8 7 6 6 5 4 3 3 4 6 8 9 10 10 10 11 12 13 13 14 15 16 17 18
2 1 1 1 3 5 7 11 11 11 10 9 7 6 5 6 8 11 11 11 10 10 9 8 7 7 7 7 7 7 7 7 8 9 9 8 8 8 7 7 6 6 4 3 3 4 6 8 9 10 10 9 8 9 9 10 11 13 14 15 17 18 18
6 4 3 3 4 5 6 6 8 10 11 10 8 6 6 7 10 12 12 11 10 9 9 8 7 6 7 7 7 6 7 7 8 8 9 8 7 6 7 7 6 5 4 4 5 7 9 10 9 8 7 7 7 8 9 10 11 13 14 16 18 19 20
10 9 9 8 7 7 8 8 9 10 12 13 12 10 9 10 12 13 12 11 10 10 9 9 8 7 6 6 7 6 7 7 7 8 8 7 6 6 6 6 4 4 4 5 7 8 9 8 7 6 6 7 7 8 9 10 12 14 16 17 19 21 22
Wind_Direction
148 143 141 137 133 131 125 123 122 119 115 108 104 105 111 115 113 113 112 115 124 130 128 123 126 140 147 146 141 146 166 183 194 191 182 180 176 176 172 121 72 63 53 53 48 47 98 323 326 347 3 0 1 8 4 355 345 332 321 304 278 268 268
148 145 144 140 137 134 129 127 127 126 121 110 105 104 107 111 109 108 107 109 113 118 118 114 114 118 119 123 124 123 125 124 127 139 152 162 161 148 138 118 102 91 80 71 55 53 101 79 316 321 349 355 358 4 4 354 345 341 333 319 300 287 278
151 149 147 143 142 139 135 134 132 131 131 124 115 110 109 111 112 111 108 108 112 116 115 112 112 111 107 108 108 111 114 110 110 112 115 123 126 125 127 121 107 96 87 72 58 58 71 64 331 304 338 353 344 345 359 359 348 339 335 331 322 309 297
157 154 152 149 150 148 144 143 139 136 136 134 129 123 118 117 117 114 109 108 112 115 116 113 115 117 112 108 107 110 113 112 111 108 105 110 114 116 117 114 107 99 90 76 61 58 63 57 19 308 332 349 334 335 359 19 37 43 41 38 28 9 353
163 160 157 156 158 157 153 149 147 143 139 136 135 133 132 129 124 116 111 109 108 108 109 110 114 117 118 115 115 117 116 114 114 110 108 109 115 117 111 106 101 93 84 80 72 64 64 59 52 334 333 350 338 337 360 32 61 64 60 58 59 56 49
169 166 162 163 164 163 159 156 153 150 146 144 141 139 141 142 135 126 118 112 106 103 104 105 105 106 108 108 110 116 117 117 115 114 114 113 117 117 108 103 98 91 85 77 74 71 62 46 41 23 349 350 334 332 356 21 53 61 53 50 55 56 50
174 172 169 169 170 169 166 163 161 157 154 152 149 145 145 145 141 134 127 121 114 110 109 109 105 102 103 101 100 103 104 106 107 109 114 115 113 109 103 104 99 93 86 71 64 59 47 41 43 31 2 353 344 342 356 6 24 43 36 30 36 38 34
180 179 178 176 175 176 174 169 166 163 158 156 154 151 148 147 146 143 140 136 129 123 119 116 110 103 100 96 95 96 93 94 98 103 109 114 111 101 91 88 82 77 64 38 24 21 38 49 49 39 28 26 8 350 350 356 15 31 17 8 4 10 13
185 184 184 182 181 182 180 174 170 165 160 157 157 156 154 151 147 146 150 148 142 134 131 130 119 105 100 97 95 94 89 87 89 94 101 102 98 92 86 77 61 54 51 45 40 36 51 59 47 37 35 45 51 1 344 343 356 13 6 3 355 349 0
189 188 189 187 186 188 187 181 174 168 162 160 160 160 160 158 152 147 148 150 148 143 136 136 130 116 111 109 105 98 91 88 82 85 91 90 89 89 86 76 51 49 59 60 56 56 59 55 43 31 24 37 53 49 19 342 327 287 349 359 352 342 352
193 191 195 194 191 192 192 187 180 173 168 164 162 162 162 162 160 155 149 148 151 153 148 145 143 137 129 124 123 115 101 99 80 76 84 80 84 87 82 80 56 47 55 58 58 60 55 45 33 26 20 22 29 37 60 339 313 293 335 347 346 343 347
201 195 196 198 197 197 196 192 186 180 174 169 166 164 165 166 164 162 158 153 154 159 159 158 160 164 159 147 148 155 143 144 130 58 84 64 61 77 90 113 78 47 40 43 55 54 41 27 13 10 10 7 9 8 1 351 312 306 325 333 337 340 343
208 200 196 198 202 202 201 198 191 185 181 176 172 168 168 168 166 163 161 159 160 164 167 169 172 179 186 192 199 204 211 219 243 260 244 273 298 311 136 154 97 48 29 15 26 37 17 3 352 350 350 345 350 349 339 334 299 299 317 329 333 336 339
213 204 198 198 203 206 206 203 196 191 186 182 179 176 174 172 168 164 162 161 163 166 172 176 181 189 196 208 221 224 230 238 245 249 246 254 266 260 230 215 226 6 359 351 352 332 331 349 356 357 356 347 345 342 331 329 315 306 317 328 331 333 339
209 206 200 198 201 206 208 207 201 195 190 188 186 182 179 176 172 167 164 163 163 167 173 181 189 197 204 213 224 228 231 239 246 247 244 249 261 262 258 258 259 263 274 298 329 319 308 337 356 357 2 4 358 356 350 346 340 322 320 326 329 333 338
202 204 202 200 200 202 206 207 203 198 194 191 190 189 185 181 176 171 169 169 170 173 177 187 196 205 213 220 226 230 232 236 242 245 244 246 252 256 259 262 263 265 264 263 288 310 301 311 337 341 346 354 353 352 355 351 346 338 325 324 328 332 336
200 201 203 205 199 195 202 208 204 199 196 193 192 191 189 186 182 179 179 178 181 186 190 196 206 215 223 228 231 233 236 238 240 243 244 245 246 248 251 253 256 261 264 261 271 293 295 300 317 322 321 324 327 327 329 331 335 338 333 327 327 329 332
202 202 206 221 204 194 203 211 206 199 195 193 193 193 191 189 188 186 188 190 194 200 204 207 213 222 228 232 236 238 238 240 243 244 245 245 244 244 245 248 251 251 254 256 263 278 283 284 299 303 302 307 312 317 321 323 327 330 330 330 329 327 328
197 197 202 215 216 209 212 208 199 196 195 189 188 190 191 193 194 193 194 198 202 208 213 216 220 226 230 231 235 239 239 240 243 244 246 246 245 243 241 243 246 243 241 243 247 257 263 265 276 285 291 301 308 314 319 321 324 325 326 329 330 328 329
174 177 187 196 195 200 214 218 201 199 202 194 178 177 184 192 198 201 202 204 208 211 213 216 220 226 232 232 233 238 241 242 242 242 244 246 245 243 240 239 238 232 230 231 231 236 244 252 262 274 285 297 305 311 316 318 319 322 326 331 335 335 335
158 149 152 159 167 177 187 200 205 200 201 199 188 182 189 197 201 206 208 210 213 214 214 222 232 235 235 235 234 237 242 244 243 241 242 243 243 242 238 237 234 226 221 221 223 228 236 244 255 266 278 289 298 307 312 314 317 323 329 334 340 343 341
145 139 138 145 168 182 182 189 202 202 196 195 194 195 201 206 207 209 213 215 217 222 231 246 256 252 245 244 245 245 247 247 245 243 240 239 240 238 235 234 229 222 218 217 220 227 234 243 254 260 268 281 296 306 309 311 319 328 334 338 341 344 342
139 149 168 184 198 204 200 198 202 200 192 195 205 208 209 215 218 219 223 227 231 241 252 260 265 264 264 266 265 260 257 254 249 244 241 237 235 233 230 228 222 218 217 218 222 229 234 242 252 255 264 280 294 301 302 305 319 332 335 335 336 338 335
174 187 198 196 193 194 195 196 198 200 201 210 220 217 214 219 223 226 237 246 254 261 265 267 267 269 272 272 270 267 264 261 255 248 242 237 231 226 222 220 218 217 218 221 225 230 235 241 247 252 265 281 289 292 291 290 299 310 316 316 318 322 321
197 192 191 188 183 182 187 194 199 201 204 208 210 213 221 231 237 248 263 270 277 279 276 275 273 275 276 274 271 270 267 265 260 253 244 234 226 221 219 217 216 216 218 221 226 230 234 239 245 255 268 278 283 285 286 283 283 288 293 296 302 307 309
172 168 168 168 168 170 178 188 192 191 196 204 217 231 243 253 259 267 273 277 282 283 282 282 283 288 292 291 286 280 273 267 261 253 241 228 221 220 219 216 212 210 209 218 230 234 235 240 245 254 264 271 274 277 279 279 279 281 285 289 294 300 308
154 151 150 150 152 155 158 159 159 164 170 177 194 210 221 234 238 236 243 254 262 272 284 291 299 306 304 300 297 290 283 275 261 249 237 227 222 223 220 216 211 207 208 220 233 235 235 240 247 255 261 265 268 271 271 272 274 278 285 292 295 300 307
149 150 149 148 148 146 146 147 146 146 142 140 149 158 153 153 187 201 211 226 243 263 283 297 310 317 317 312 305 292 277 262 247 238 231 224 223 222 218 213 210 210 218 228 232 235 239 245 252 257 259 262 264 266 265 265 268 272 279 286 289 293 298
144 147 150 150 147 144 148 154 157 168 177 178 192 214 222 252 273 250 226 231 249 265 285 305 316 326 334 335 327 299 262 243 234 232 227 220 217 213 212 213 215 220 228 226 225 232 240 246 251 254 255 257 257 255 253 254 258 262 266 272 278 284 288
150 149 152 153 154 157 161 164 170 191 209 218 232 253 263 258 255 257 248 243 250 259 269 289 309 325 337 340 334 290 235 219 211 206 196 191 195 195 196 208 214 210 213 217 220 230 236 239 244 246 246 246 243 239 239 244 252 257 261 267 273 279 283
170 168 170 168 168 172 178 190 207 220 230 249 269 285 291 275 257 253 251 246 245 247 251 263 289 309 320 316 279 205 184 176 170 167 163 162 171 178 183 196 209 215 223 230 236 245 247 242 237 233 232 232 234 241 250 259 267 271 274 277 280 282 285
191 185 182 180 180 187 202 215 222 227 238 262 286 305 315 300 266 248 244 243 243 241 241 241 250 266 265 247 232 214 196 184 172 171 178 183 187 196 207 219 226 230 236 241 245 252 251 241 232 229 235 250 265 277 284 290 293 294 294 294 295 296 296
196 193 189 189 194 205 218 225 227 230 240 258 277 299 316 305 264 244 235 233 236 236 234 228 223 227 233 229 223 217 210 203 191 185 191 199 204 209 214 219 221 224 232 238 241 243 241 238 245 257 273 286 294 299 301 303 305 307 309 309 310 311 311
194 191 192 209 225 233 231 228 228 233 239 249 266 289 305 290 253 238 226 221 222 222 221 221 215 215 222 227 225 222 217 210 205 200 194 194 198 198 195 198 202 204 210 215 218 234 260 283 293 296 300 303 307 310 311 312 315 316 317 317 317 316 315
268 186 145 241 286 275 246 230 231 238 242 249 261 272 277 265 242 229 220 214 213 211 209 211 213 216 222 227 227 228 222 210 205 206 201 190 186 185 181 180 182 183 190 213 256 291 301 302 303 304 307 309 314 317 317 317 319 319 318 318 317 315 315
250 238 248 274 296 305 292 263 255 258 258 263 267 257 247 243 231 220 214 209 209 210 208 206 210 221 229 229 225 223 218 207 202 207 209 199 186 180 177 176 184 200 227 262 289 301 305 303 301 302 307 310 312 313 311 313 316 317 315 314 312 311 312
242 249 262 272 273 278 287 286 277 268 260 257 253 243 238 232 220 211 210 210 209 210 208 205 208 217 222 221 218 216 213 207 204 209 213 205 184 174 176 186 205 233 262 289 300 305 306 301 293 291 297 301 305 307 310 313 316 314 311 309 308 308 309
Height
812 814 816 817 817 818 818 818 819 820 820 821 821 821 822 822 822 822 823 823 823 824 824 824 824 824 824 825 826 826 827 828 829 829 830 830 831 833 833 833 834 835 835 835 836 837 838 837 835 834 834 833 833 832 832 831 830 829 829 829 829 830 830
812 814 816 817 818 818 818 819 819 820 821 821 822 822 822 822 823 823 824 824 824 825 825 825 825 825 826 826 827 827 827 828 829 829 830 830 831 832 833 834 835 836 836 836 837 837 837 838 838 836 834 833 832 832 831 830 829 829 828 828 828 828 828
812 814 816 817 818 818 818 819 819 820 821 822 822 823 823 823 824 825 825 825 826 826 827 827 827 827 827 828 828 828 828 829 830 830 830 831 832 833 834 834 835 836 836 837 837 837 837 838 838 837 836 834 833 832 831 830 829 829 828 827 826 826 827
811 813 815 817 818 818 818 819 819 820 821 822 823 823 824 824 825 825 825 826 826 827 827 827 828 828 828 829 829 829 830 830 831 831 831 832 832 833 834 835 835 836 837 837 838 838 838 838 839 838 837 835 834 832 831 830 829 828 827 826 826 826 826
811 813 814 816 818 818 818 819 820 820 821 822 823 823 824 825 825 826 826 826 827 827 828 828 829 829 829 830 830 831 831 831 832 832 833 833 834 834 835 836 836 836 837 838 838 838 838 839 839 838 837 835 834 833 831 831 830 829 828 827 827 827 827
812 813 814 815 817 818 818 819 819 820 821 822 823 823 824 825 825 826 826 827 827 828 829 829 830 830 830 831 831 832 832 833 833 834 834 835 835 836 836 837 837 838 838 839 839 839 839 839 838 838 837 836 835 833 832 831 831 830 829 829 828 828 828
812 813 814 815 817 818 818 818 818 819 820 822 823 823 824 825 826 826 827 827 828 828 829 830 830 831 831 832 832 833 833 834 835 835 835 836 837 837 838 838 838 839 839 839 840 840 839 839 839 838 837 836 835 834 833 832 831 831 830 830 829 829 828
811 812 814 815 817 818 817 817 817 819 820 821 823 823 824 825 826 827 827 827 828 829 829 830 831 832 832 833 833 834 834 835 835 836 836 837 838 838 839 839 840 840 840 840 840 840 840 840 840 839 838 837 836 835 834 833 832 832 831 830 830 829 829
810 811 813 814 816 817 816 816 816 817 819 820 822 823 824 825 826 827 827 828 828 829 830 830 831 832 833 834 834 835 835 836 836 837 837 838 838 839 840 840 841 841 841 841 841 841 841 841 841 840 840 839 838 837 836 835 833 833 832 831 830 829 829
809 810 812 813 815 816 816 816 816 817 818 819 821 822 824 825 826 827 827 828 829 829 830 831 831 832 833 834 835 835 836 837 837 838 838 839 839 840 840 841 842 842 842 842 842 842 842 842 842 841 840 840 840 840 840 838 836 834 833 833 832 830 830
809 810 811 813 814 815 816 817 817 817 817 818 819 821 822 824 825 826 827 828 829 829 830 831 832 833 833 834 835 836 836 837 838 838 839 839 840 840 841 841 842 842 842 843 842 842 842 842 842 842 841 841 841 841 841 840 839 836 834 834 833 832 830
809 810 810 812 814 814 815 816 816 817 817 817 817 818 820 822 823 825 826 827 828 829 830 831 832 833 833 834 835 836 837 837 838 839 839 840 840 840 841 841 842 842 842 842 842 842 842 842 842 842 841 841 841 841 841 841 840 837 836 835 834 833 832
807 807 808 810 812 813 814 815 815 816 816 816 816 817 818 820 821 823 824 826 827 828 830 830 831 832 833 834 835 836 837 838 838 839 839 840 840 841 841 841 842 842 842 842 842 842 842 842 841 841 841 841 841 841 841 841 840 837 836 836 835 834 833
803 805 806 807 809 811 812 813 814 814 815 815 815 816 817 818 819 821 822 824 825 827 828 829 830 831 832 834 835 836 837 838 838 839 839 840 840 841 841 841 842 842 842 842 842 842 842 842 842 841 841 841 841 842 841 841 840 838 835 836 835 834 833
800 802 803 804 806 808 810 811 813 813 814 814 815 815 816 817 818 820 821 823 824 825 827 828 829 830 831 833 834 835 836 837 838 839 839 840 840 841 841 841 842 842 842 842 842 842 842 842 842 842 842 842 842 842 841 841 841 839 836 835 834 834 833
798 800 801 802 803 805 808 810 811 811 812 813 814 814 815 817 818 819 820 822 823 825 826 827 828 829 830 831 832 834 835 836 837 838 838 839 840 841 841 841 841 842 842 842 842 842 842 842 842 842 842 842 842 842 842 841 841 840 838 836 834 833 832
796 798 799 801 802 803 807 810 810 810 811 811 813 814 815 816 818 819 820 821 822 824 825 826 827 828 828 829 830 831 833 834 835 836 837 838 839 839 840 841 841 841 842 842 842 842 842 842 842 842 842 842 842 842 842 841 841 840 839 837 835 834 833
796 797 799 802 804 804 806 810 810 811 811 811 812 813 815 816 818 819 820 821 822 823 823 824 824 825 826 827 828 829 831 832 834 835 836 837 837 838 839 839 840 841 841 842 842 842 842 842 842 842 842 842 842 842 842 841 841 840 839 838 836 835 834
796 796 798 801 805 808 810 811 812 812 813 813 813 814 816 817 817 818 820 820 821 821 822 822 822 822 823 824 826 827 828 830 831 833 834 835 836 836 837 838 838 839 840 840 841 841 841 841 841 841 842 842 842 842 841 841 840 840 839 838 837 835 834
796 796 798 800 804 809 813 816 816 813 813 815 816 816 818 819 819 819 819 819 820 820 820 820 821 822 823 823 824 825 827 828 829 831 832 833 834 835 835 836 837 837 838 839 839 840 840 841 841 841 841 841 841 841 841 840 840 839 838 837 837 836 834
795 797 800 803 806 809 812 817 819 816 815 818 818 818 819 821 821 820 819 818 818 819 819 820 820 821 822 823 823 824 825 826 827 828 830 830 832 832 833 834 835 835 836 837 838 838 838 839 839 840 840 841 841 841 840 840 839 839 838 837 837 836 834
794 797 799 803 809 812 811 812 815 816 817 818 818 816 818 820 820 820 819 818 818 819 819 819 819 820 821 821 822 822 823 824 825 826 827 828 829 830 831 832 833 834 834 835 836 836 837 837 838 838 839 839 840 840 840 840 839 839 838 837 836 835 834
795 798 800 802 807 809 809 808 809 811 812 813 813 813 814 816 817 818 818 818 818 819 819 819 819 819 820 820 821 821 821 822 823 824 825 825 827 828 829 830 831 832 833 833 834 834 835 836 836 837 837 838 838 839 839 839 839 839 838 837 836 836 834
794 798 801 802 804 806 807 807 808 808 808 809 810 811 812 814 814 815 816 817 817 818 818 818 817 818 818 819 820 820 820 820 820 821 822 822 823 825 827 828 829 830 830 831 832 833 833 834 834 835 836 836 836 837 837 838 838 838 838 837 836 836 835
795 798 799 801 803 804 805 806 806 807 807 808 810 810 811 812 813 814 814 815 816 816 816 816 815 816 816 817 818 818 818 818 818 818 819 819 821 824 825 826 826 827 828 829 830 831 832 833 833 833 834 834 835 835 835 836 836 837 837 836 835 835 834
795 797 799 801 802 803 804 804 805 806 806 807 808 809 810 811 811 812 813 814 814 815 815 814 814 814 815 815 816 816 816 816 816 816 816 817 819 821 822 823 824 825 826 828 829 830 831 831 831 831 832 832 833 833 834 834 834 835 835 834 834 833 833
795 797 798 800 801 802 803 804 805 805 806 807 807 808 809 810 811 812 813 813 814 814 814 814 814 814 814 813 813 813 813 813 813 814 814 814 816 819 820 820 821 823 824 827 828 829 830 830 830 830 830 831 831 832 832 832 833 833 833 833 832 831 831
795 796 797 799 800 801 802 803 804 805 806 807 808 808 809 810 811 812 812 813 813 813 813 813 813 813 813 812 812 812 812 812 812 813 814 814 816 818 820 820 821 822 824 826 827 828 828 829 829 829 829 830 830 831 831 831 831 832 832 831 831 830 830
795 796 797 798 799 800 801 803 803 804 805 806 807 808 809 810 810 811 812 812 812 813 813 813 813 812 812 812 811 811 811 811 812 813 814 815 817 819 821 821 821 822 824 825 826 827 827 827 828 828 828 828 829 829 829 829 830 830 830 829 829 828 828
795 796 797 798 799 800 801 802 803 804 805 806 807 807 808 809 810 810 811 811 811 812 812 812 812 812 812 812 811 811 811 812 812 813 814 816 817 819 820 821 821 822 823 824 825 825 826 826 826 826 827 827 828 828 828 828 828 828 828 828 828 827 827
795 796 797 798 799 800 801 802 803 804 804 805 806 807 807 808 809 809 809 810 810 811 811 812 812 812 812 812 812 812 812 812 813 814 815 816 817 818 819 820 821 822 822 823 823 824 824 825 825 825 826 826 827 827 826 826 826 827 827 826 826 826 825
795 795 796 798 799 800 801 802 803 803 804 804 805 806 807 808 808 808 809 809 809 810 810 811 811 812 812 812 813 813 813 814 814 815 815 816 817 818 819 820 821 821 822 822 822 823 823 824 824 825 825 825 825 825 825 824 824 824 824 824 824 823 823
795 795 796 797 798 799 800 801 802 803 803 804 804 805 806 807 808 808 809 809 809 809 809 810 810 811 812 812 813 813 814 815 815 815 816 816 817 817 818 819 820 820 820 821 822 822 823 823 824 824 824 824 824 823 823 822 822 822 822 821 821 821 820
795 795 796 797 797 798 799 800 801 802 802 803 803 804 805 807 808 808 808 808 809 809 809 810 810 811 811 812 812 813 814 815 815 815 816 816 817 817 818 818 819 819 820 821 821 822 822 823 823 823 822 822 822 821 821 821 820 820 820 820 819 819 818
795 795 796 796 796 797 798 799 800 801 801 802 802 803 804 806 807 807 808 808 809 809 809 810 810 811 812 812 812 813 813 814 815 815 815 816 816 817 817 818 818 819 820 821 821 821 821 821 821 821 820 820 820 820 819 819 819 819 818 818 817 817 816
794 795 795 795 796 797 797 798 800 800 800 801 801 802 803 804 806 806 807 808 808 809 810 810 811 812 812 812 813 813 813 814 814 815 815 815 816 816 817 818 818 819 820 820 820 820 820 820 820 819 819 819 819 819 818 818 818 818 817 817 816 814 814
793 794 794 794 795 796 797 798 799 800 800 800 800 801 802 803 804 805 806 807 808 809 809 810 811 812 812 812 813 813 813 814 814 814 815 815 816 816 817 818 818 818 819 819 819 819 819 819 819 819 819 819 818 818 817 817 817 817 816 815 814 813 812